Weather History for Spencer, IA

Change the Weather History Date:

Tuesday, May 28, 2013

  Actual Average Record
Temperature  
Mean Temperature 65 °F -  
Max Temperature 73 °F 76 °F 95 °F (2006)
Min Temperature 57 °F 53 °F 40 °F (1971)
Growing Degree Days 15 (Base 50)    
Moisture  
Dew Point 59 °F    
Average Humidity 87    
Maximum Humidity 100    
Minimum Humidity 64    
Precipitation  
Precipitation 0.01 in - - ()
Sea Level Pressure  
Sea Level Pressure 29.72 in    
Wind  
Wind Speed 7 mph (NNE)    
Max Wind Speed 12 mph    
Max Gust Speed -    
Visibility 5 miles    
Events Fog    
Averages and records for this station are not official NWS values.
T = Trace of Precipitation, MM = Missing Value Source: NWS Daily Summary

Daily Weather History Graph

Daily Weather History Graph

Search for Another Location

Airport:

Trip Planner

Search our weather history database for the weather conditions in past years. The results will help you decide how hot, cold, wet, or windy it might be!

Date:

Astronomy

May. 28, 2013 Rise Set
Actual Time 5:45 AM CDT 8:50 PM CDT
Civil Twilight 5:11 AM CDT 9:25 PM CDT
Nautical Twilight 4:27 AM CDT 10:09 PM CDT
Astronomical Twilight 3:35 AM CDT 11:01 PM CDT
Moon No Moon Rise 9:37 AM CDT (5/28)
Length of Visible Light 16h 13m
Length of Day
15h 04m
Waning Gibbous, 82% of the Moon is Illuminated
May 28
Waning Gibbous
May 31
Last Quarter
Jun 8
New
Jun 16
First Quarter
Jun 23
Full

Hourly Weather History & Observations

Time (CDT) Temp. Dew Point Humidity Pressure Visibility Wind Dir Wind Speed Gust Speed Precip Events Conditions
12:08 AM 57.2 °F 57.2 °F 100% 29.75 in 0.2 mi NE 9.2 mph - N/A Fog Fog
12:53 AM 57.9 °F 57.9 °F 100% 29.73 in 0.2 mi NE 9.2 mph - N/A Fog Fog
1:01 AM 57.2 °F 57.2 °F 100% 29.73 in 0.2 mi NE 8.1 mph - N/A Fog Fog
1:53 AM 57.9 °F 57.9 °F 100% 29.72 in 0.2 mi East 6.9 mph - N/A Fog Fog
2:53 AM 57.9 °F 57.9 °F 100% 29.71 in 0.2 mi NE 5.8 mph - N/A Fog Fog
3:53 AM 57.9 °F 57.0 °F 97% 29.70 in 0.5 mi NNE 6.9 mph - 0.01 in Fog Fog
4:14 AM 57.2 °F 57.2 °F 100% 29.70 in 1.5 mi NNE 4.6 mph - N/A   Overcast
4:25 AM 57.2 °F 57.2 °F 100% 29.70 in 2.0 mi North 5.8 mph - N/A   Overcast
4:36 AM 57.2 °F 57.2 °F 100% 29.69 in 1.5 mi NNE 8.1 mph - N/A   Overcast
4:51 AM 57.2 °F 57.2 °F 100% 29.70 in 0.5 mi NE 6.9 mph - N/A Fog Fog
4:53 AM 57.9 °F 57.0 °F 97% 29.70 in 0.5 mi NE 6.9 mph - N/A Fog Fog
5:10 AM 57.2 °F 57.2 °F 100% 29.70 in 0.2 mi NE 8.1 mph - N/A Fog Fog
5:53 AM 57.9 °F 57.0 °F 97% 29.70 in 0.2 mi North 3.5 mph - N/A Fog Fog
6:53 AM 57.9 °F 57.0 °F 97% 29.69 in 0.2 mi North 4.6 mph - N/A Fog Fog
7:32 AM 57.2 °F 57.2 °F 100% 29.68 in 0.2 mi ENE 6.9 mph - N/A Fog Fog
7:53 AM 57.9 °F 57.9 °F 100% 29.68 in 0.2 mi ENE 5.8 mph - N/A Fog Fog
8:05 AM 59.0 °F 57.2 °F 94% 29.68 in 0.2 mi ENE 6.9 mph - N/A Fog Fog
8:53 AM 59.0 °F 57.9 °F 96% 29.68 in 0.2 mi ENE 6.9 mph - N/A Fog Fog
9:53 AM 60.1 °F 59.0 °F 96% 29.69 in 0.2 mi ENE 6.9 mph - N/A Fog Fog
10:53 AM 60.1 °F 59.0 °F 96% 29.72 in 0.2 mi West 6.9 mph - N/A Fog Fog
11:09 AM 60.8 °F 60.8 °F 100% 29.73 in 0.8 mi West 5.8 mph - N/A   Overcast
11:20 AM 60.8 °F 60.8 °F 100% 29.72 in 1.2 mi Calm Calm - N/A   Overcast
11:31 AM 60.8 °F 59.0 °F 94% 29.73 in 3.0 mi Calm Calm - N/A   Overcast
11:53 AM 62.1 °F 60.1 °F 93% 29.72 in 5.0 mi West 6.9 mph - N/A   Overcast
12:18 PM 62.6 °F 60.8 °F 94% 29.73 in 5.0 mi NW 8.1 mph - N/A   Overcast
12:53 PM 62.1 °F 59.0 °F 90% 29.73 in 9.0 mi NW 11.5 mph - N/A   Overcast
1:22 PM 66.2 °F 60.8 °F 83% 29.73 in 10.0 mi NNW 6.9 mph - N/A   Mostly Cloudy
1:53 PM 68.0 °F 60.1 °F 76% 29.72 in 10.0 mi NNW 5.8 mph - N/A   Overcast
2:33 PM 68.0 °F 60.8 °F 78% 29.73 in 10.0 mi WNW 5.8 mph - N/A   Mostly Cloudy
2:53 PM 68.0 °F 61.0 °F 78% 29.73 in 10.0 mi West 5.8 mph - N/A   Overcast
3:53 PM 70.0 °F 57.9 °F 65% 29.74 in 10.0 mi Calm Calm - N/A   Overcast
4:16 PM 71.6 °F 59.0 °F 64% 29.75 in 10.0 mi North 5.8 mph - N/A   Scattered Clouds
4:46 PM 71.6 °F 60.8 °F 69% 29.75 in 10.0 mi NW 4.6 mph - N/A   Mostly Cloudy
4:53 PM 73.0 °F 60.1 °F 64% 29.73 in 10.0 mi Calm Calm - N/A   Mostly Cloudy
5:02 PM 71.6 °F 60.8 °F 69% 29.75 in 10.0 mi North 5.8 mph - N/A   Scattered Clouds
5:48 PM 71.6 °F 60.8 °F 69% 29.74 in 10.0 mi WSW 4.6 mph - N/A   Mostly Cloudy
5:53 PM 72.0 °F 60.1 °F 66% 29.73 in 10.0 mi Calm Calm - N/A   Mostly Cloudy
6:00 PM 71.6 °F 60.8 °F 69% 29.74 in 10.0 mi WNW 4.6 mph - N/A   Scattered Clouds
6:20 PM 73.4 °F 60.8 °F 65% 29.73 in 10.0 mi WNW 3.5 mph - N/A   Mostly Cloudy
6:49 PM 71.6 °F 60.8 °F 69% 29.71 in 10.0 mi North 6.9 mph - N/A   Scattered Clouds
6:53 PM 72.0 °F 60.1 °F 66% 29.70 in 10.0 mi North 4.6 mph - N/A   Partly Cloudy
7:53 PM 70.0 °F 60.1 °F 71% 29.70 in 10.0 mi ENE 6.9 mph - N/A   Clear
8:53 PM 64.9 °F 60.1 °F 84% 29.71 in 10.0 mi East 4.6 mph - N/A   Partly Cloudy
9:53 PM 62.1 °F 59.0 °F 90% 29.75 in 10.0 mi ENE 4.6 mph - N/A   Partly Cloudy
10:53 PM 62.1 °F 60.1 °F 93% 29.76 in 8.0 mi East 9.2 mph - N/A   Clear
11:53 PM 60.1 °F 57.9 °F 93% 29.76 in 5.0 mi East 8.1 mph - N/A   Clear